Location: Austin
(30.3000°N, 97.7500°W)
Time: 03:13:12
(UTC-05:00)

Tiangong - Pass Details

Date: 18 March 2023
Orbit: 373 x 379 km, 41.5° (Epoch: 01 April)

Event Time Altitude Azimuth Distance (km) Brightness Sun altitude
Rises 21:56:03 0° 301° (WNW) 2,228 2.9 -29.5°
Reaches altitude 10° 21:58:07 10° 302° (WNW) 1,374 1.5 -29.9°
Enters shadow 21:58:12 11° 302° (WNW) 1,334 1.4 -29.9°
